CW3330 Weather Reports


time (UTC)temp
C
wind
direction
speed
KPH
gust
KPH
rain 1hr
cm
rain 24hr
cm
rain mn
cm
humidity
%
barometer
mb
20260509194505 13 198 1.6 6.4 0.00 0.00 0.00 67 1018.2
20260509193506 13 129 1.6 8.0 0.00 0.00 0.00 67 1018.1
20260509192506 14 123 3.2 12.9 0.00 0.00 0.00 66 1017.9
20260509191506 13 144 1.6 8.0 0.00 0.00 0.00 69 1017.9
20260509190513 13 81 0.0 4.8 0.00 0.00 0.00 71 1017.7
20260509185513 13 80 1.6 4.8 0.00 0.00 0.00 71 1017.7
20260509184506 13 80 3.2 8.0 0.00 0.00 0.00 71 1017.6
20260509183513 13 74 1.6 11.3 0.00 0.00 0.00 70 1017.6
20260509182953 14 77 4.8 12.9 0.00 0.00 0.00 70 1017.6
20260509181507 14 98 4.8 14.5 0.00 0.00 0.00 70 1017.5
20260509180507 14 68 6.4 16.1 0.00 0.00 0.00 69 1017.4
20260509175514 14 50 8.0 16.1 0.00 0.00 0.00 69 1017.4
20260509173511 14 24 8.0 19.3 0.00 0.00 0.00 66 1017.6
20260509172944 14 53 9.7 17.7 0.00 0.00 0.00 67 1017.6
20260509171518 14 64 9.7 17.7 0.00 0.00 0.00 66 1017.6
20260509170507 14 77 9.7 17.7 0.00 0.00 0.00 67 1017.6
20260509165506 14 62 11.3 20.9 0.00 0.00 0.00 67 1017.5
20260509164513 15 22 11.3 22.5 0.00 0.00 0.00 67 1017.4
20260509163953 15 89 9.7 22.5 0.00 0.00 0.00 67 1017.7
20260509162506 16 44 11.3 17.7 0.00 0.00 0.00 60 1017.7
20260509161513 16 355 9.7 20.9 0.00 0.00 0.00 64 1017.7
20260509160507 16 22 17.7 25.7 0.00 0.00 0.00 64 1017.9
20260509155507 15 24 12.9 20.9 0.00 0.00 0.00 64 1018.0
20260509154506 16 18 16.1 27.4 0.00 0.00 0.00 62 1018.1
20260509153949 17 36 16.1 25.7 0.00 0.00 0.00 60 1018.2
20260509152521 17 80 11.3 22.5 0.00 0.00 0.00 59 1018.2
20260509151506 17 43 9.7 19.3 0.00 0.00 0.00 58 1018.3
20260509150506 17 46 14.5 25.7 0.00 0.00 0.00 58 1018.5
20260509145506 17 50 11.3 22.5 0.00 0.00 0.00 58 1018.5
20260509144506 17 51 11.3 22.5 0.00 0.00 0.00 56 1018.6
20260509143508 17 73 8.0 22.5 0.00 0.00 0.00 59 1018.8
20260509142506 17 51 9.7 27.4 0.00 0.00 0.00 58 1018.9
20260509141506 17 38 14.5 29.0 0.00 0.00 0.00 58 1018.9
20260509140507 17 50 16.1 27.4 0.00 0.00 0.00 61 1019.0
20260509134508 16 64 16.1 29.0 0.00 0.00 0.00 62 1019.3
20260509133514 17 57 11.3 27.4 0.00 0.00 0.00 64 1019.5
20260509132507 16 24 11.3 25.7 0.00 0.00 0.00 63 1019.6
20260509131506 16 65 11.3 27.4 0.00 0.00 0.00 62 1019.8
20260509130513 16 62 11.3 25.7 0.00 0.00 0.00 64 1019.8
20260509125506 15 41 16.1 25.7 0.00 0.00 0.00 66 1019.9
20260509124527 15 12 8.0 25.7 0.00 0.00 0.00 66 1020.0
20260509123514 15 51 11.3 22.5 0.00 0.00 0.00 66 1020.0
20260509122506 15 57 12.9 22.5 0.00 0.00 0.00 64 1020.1
20260509121507 16 22 11.3 20.9 0.00 0.00 0.00 60 1020.2
20260509120514 16 51 11.3 29.0 0.00 0.00 0.00 62 1020.3
20260509115507 16 59 14.5 29.0 0.00 0.00 0.00 56 1020.4
20260509114506 15 19 12.9 22.5 0.00 0.00 0.00 62 1020.4
20260509113512 15 25 11.3 20.9 0.00 0.00 0.00 57 1020.7
20260509112506 16 65 16.1 27.4 0.00 0.00 0.00 61 1020.9
20260509111506 15 340 11.3 22.5 0.00 0.00 0.00 53 1020.9
20260509110513 16 12 9.7 17.7 0.00 0.00 0.00 53 1021.0
20260509105945 15 73 4.8 17.7 0.00 0.00 0.00 53 1021.0
20260509104505 15 86 8.0 17.7 0.00 0.00 0.00 52 1021.0
20260509103958 15 65 8.0 20.9 0.00 0.00 0.00 58 1021.2
20260509102507 15 42 9.7 17.7 0.00 0.00 0.00 57 1021.2
20260509101506 15 36 11.3 17.7 0.00 0.00 0.00 55 1021.4
20260509100513 14 76 4.8 20.9 0.00 0.00 0.00 51 1021.5
20260509095506 14 26 9.7 22.5 0.00 0.00 0.00 56 1021.5
20260509094953 13 16 8.0 17.7 0.00 0.00 0.00 56 1021.4
20260509093513 13 96 1.6 16.1 0.00 0.00 0.00 57 1021.4
20260509092949 13 187 4.8 19.3 0.00 0.00 0.00 61 1021.3
20260509091521 13 94 11.3 19.3 0.00 0.00 0.00 58 1021.4
20260509090511 13 86 6.4 22.5 0.00 0.00 0.00 60 1021.5
20260509085506 13 12 9.7 17.7 0.00 0.00 0.00 61 1021.3
20260509084506 13 61 9.7 19.3 0.00 0.00 0.00 59 1021.4
20260509083514 12 51 8.0 17.7 0.00 0.00 0.00 58 1021.5
20260509082510 12 75 4.8 16.1 0.00 0.00 0.00 60 1021.6
20260509081513 12 34 9.7 19.3 0.00 0.00 0.00 61 1021.6
20260509080517 12 142 8.0 17.7 0.00 0.00 0.00 60 1021.6
20260509075507 12 44 4.8 17.7 0.00 0.00 0.00 62 1021.7
20260509074506 11 71 8.0 17.7 0.00 0.00 0.00 64 1021.6
20260509073512 11 71 4.8 16.1 0.00 0.00 0.00 66 1021.6
20260509072507 11 73 6.4 17.7 0.00 0.00 0.00 69 1021.8
20260509071946 10 113 3.2 14.5 0.00 0.00 0.00 69 1021.8
20260509070512 10 46 9.7 17.7 0.00 0.00 0.00 71 1021.9
20260509065506 10 90 4.8 16.1 0.00 0.00 0.00 73 1021.9
20260509064508 10 53 6.4 19.3 0.00 0.00 0.00 75 1021.9
20260509063512 9 76 3.2 17.7 0.00 0.00 0.00 78 1021.8
20260509062507 9 87 8.0 19.3 0.00 0.00 0.00 78 1021.9
20260509061505 8 105 6.4 22.5 0.00 0.00 0.00 79 1021.8
20260509054512 8 74 4.8 12.9 0.00 0.00 0.00 81 1021.8
20260509053512 8 81 8.0 17.7 0.00 0.00 0.00 81 1021.9
20260509052940 7 92 4.8 12.9 0.00 0.00 0.00 82 1021.9
20260509051506 7 92 3.2 12.9 0.00 0.00 0.00 82 1021.9
20260509050511 6 76 3.2 6.4 0.00 0.00 0.00 83 1021.9
20260509045948 6 80 3.2 8.0 0.00 0.00 0.00 83 1021.9
20260509044506 6 81 1.6 6.4 0.00 0.00 0.00 83 1021.8
20260509043526 5 84 3.2 6.4 0.00 0.00 0.00 84 1021.8
20260509042506 5 84 3.2 4.8 0.00 0.00 0.00 84 1021.9
20260509041508 5 84 1.6 4.8 0.00 0.00 0.00 85 1021.8
20260509040929 5 85 3.2 4.8 0.00 0.00 0.00 85 1021.9
20260509035449 5 85 1.6 4.8 0.00 0.00 0.00 85 1021.9
20260509034448 5 85 3.2 4.8 0.00 0.00 0.00 85 1022.0
20260509033445 5 86 1.6 4.8 0.00 0.00 0.00 84 1021.9
20260509032441 5 86 3.2 4.8 0.00 0.00 0.00 84 1021.9
20260509031439 5 87 0.0 0.0 0.00 0.00 0.00 85 1022.1
20260509030924 5 87 0.0 4.8 0.00 0.00 0.00 84 1022.1
20260509025432 5 88 3.2 4.8 0.00 0.00 0.00 84 1022.2
20260509024908 5 88 3.2 6.4 0.00 0.00 0.00 84 1022.2
20260509023431 5 87 3.2 4.8 0.00 0.00 0.00 83 1022.1
20260509022430 5 87 3.2 6.4 0.00 0.00 0.00 84 1022.1
20260509021430 5 86 4.8 8.0 0.00 0.00 0.00 83 1022.0
20260509020440 6 80 3.2 11.3 0.00 0.00 0.00 82 1022.0
20260509015438 6 103 3.2 6.4 0.00 0.00 0.00 82 1022.0
20260509014433 6 92 4.8 12.9 0.00 0.00 0.00 82 1022.0
20260509013430 6 98 3.2 11.3 0.00 0.00 0.00 81 1022.1
20260509012431 6 95 3.2 6.4 0.00 0.00 0.00 81 1022.1
20260509011430 6 96 4.8 11.3 0.00 0.00 0.00 80 1022.1
20260509010430 6 94 3.2 8.0 0.00 0.00 0.00 80 1022.0
20260509005430 6 92 3.2 11.3 0.00 0.00 0.00 80 1021.9
20260509004430 6 84 3.2 11.3 0.00 0.00 0.00 80 1021.9
20260509003430 6 88 4.8 11.3 0.00 0.00 0.00 79 1021.9
20260509002423 6 92 4.8 6.4 0.00 0.00 0.00 79 1021.8
20260509001422 6 92 4.8 11.3 0.00 0.00 0.00 78 1021.8
20260509000425 7 88 4.8 11.3 0.00 0.00 0.00 78 1021.8
20260508235414 7 90 3.2 11.3 0.00 0.00 0.00 78 1021.9
20260508234858 7 84 3.2 12.9 0.00 0.00 0.00 78 1021.9
20260508233412 7 85 4.8 8.0 0.00 0.00 0.00 79 1021.8
20260508232408 7 83 4.8 8.0 0.00 0.00 0.00 79 1022.0
20260508231405 7 90 3.2 6.4 0.00 0.00 0.00 79 1022.0
20260508230419 7 83 3.2 6.4 0.00 0.00 0.00 79 1022.1
20260508225848 7 86 3.2 6.4 0.00 0.00 0.00 80 1022.0
20260508224405 7 85 3.2 8.0 0.00 0.00 0.00 80 1022.0
20260508223403 7 84 3.2 8.0 0.00 0.00 0.00 79 1021.9
20260508222403 7 90 3.2 6.4 0.00 0.00 0.00 79 1022.0
20260508221405 7 92 3.2 6.4 0.00 0.00 0.00 79 1022.0
20260508220405 8 90 3.2 6.4 0.00 0.00 0.00 78 1022.0
20260508215403 8 91 4.8 6.4 0.00 0.00 0.00 78 1022.0
20260508214403 8 86 3.2 6.4 0.00 0.00 0.00 77 1021.9
20260508213842 8 87 3.2 8.0 0.00 0.00 0.00 76 1021.9
20260508212403 8 76 4.8 8.0 0.00 0.00 0.00 76 1021.9
20260508211404 8 83 3.2 8.0 0.00 0.00 0.00 75 1021.9
20260508210404 8 80 4.8 8.0 0.00 0.00 0.00 74 1021.8
20260508205403 8 69 3.2 8.0 0.00 0.00 0.00 73 1021.9
20260508204402 9 62 3.2 11.3 0.00 0.00 0.00 72 1021.8
20260508203358 9 74 4.8 8.0 0.00 0.00 0.00 71 1021.8
20260508202356 9 83 4.8 12.9 0.00 0.00 0.00 70 1021.8
20260508201353 9 86 4.8 12.9 0.00 0.00 0.00 70 1021.8
20260508200834 10 86 4.8 14.5 0.00 0.00 0.00 68 1021.7
20260508195345 10 87 6.4 19.3 0.00 0.00 0.00 67 1021.7